Wind_Speed
10 9 8 8 9 9 10 11 13 15 16 16 16 17 18 18 16 14 11 9 5 6 8 13 16 18 19 20 21 20 18 16 14 12 10 8 6 4 3 2 1 1 0 1
10 9 10 10 10 10 12 13 13 15 15 15 16 16 16 15 14 12 10 8 3 4 7 9 13 15 17 18 19 18 16 16 14 12 10 8 6 4 3 2 2 1 0 1
11 11 11 10 10 11 13 13 13 15 15 15 15 15 14 13 12 11 9 7 3 2 6 9 10 11 14 16 16 17 16 15 13 11 10 8 7 5 4 3 2 2 1 1
12 12 12 11 11 12 12 14 14 14 14 14 14 13 13 12 11 10 8 6 4 1 4 7 9 11 13 14 14 15 14 14 13 11 10 8 7 6 5 4 3 2 1 1
13 13 13 12 13 13 13 14 13 13 12 13 13 11 12 11 10 8 7 5 3 2 2 5 8 9 10 12 12 13 13 13 12 11 9 9 7 6 6 4 4 3 3 3
14 14 14 14 13 14 14 13 13 12 11 11 12 10 10 10 9 7 5 4 3 2 2 4 6 8 9 10 11 12 12 12 11 11 10 9 8 7 6 5 5 5 4 4
14 15 14 14 13 13 12 12 11 10 10 11 12 10 9 9 7 6 4 3 2 1 1 4 5 7 8 9 11 11 11 11 11 11 10 9 9 8 7 7 6 6 6 6
15 14 15 15 14 13 12 12 10 10 10 10 11 9 10 9 7 6 5 3 2 1 2 4 6 7 8 9 10 11 11 12 11 11 10 10 9 9 8 8 8 8 8 8
15 15 17 16 15 15 15 13 12 12 11 10 10 11 11 10 8 7 7 5 4 4 4 5 6 8 9 10 11 12 12 12 12 11 11 11 11 10 10 10 10 10 10 10
17 17 18 17 17 17 17 16 14 12 11 10 10 10 10 11 9 8 7 7 6 6 6 6 7 8 9 10 11 12 12 13 13 12 12 13 13 12 12 13 13 13 13 13
19 18 19 19 20 20 18 17 15 13 13 11 9 10 12 11 10 9 9 8 8 7 7 8 8 9 9 10 12 13 13 13 13 14 14 14 15 15 15 15 16 16 16 16
21 20 19 20 20 19 19 17 15 14 13 12 10 10 13 11 11 10 10 10 9 9 9 10 10 11 11 12 13 13 14 15 15 16 16 16 17 18 18 19 19 19 19 20
23 22 20 20 20 18 17 15 15 14 14 12 10 11 14 12 12 12 11 11 11 11 11 11 11 12 12 13 14 15 16 16 17 18 18 19 20 21 21 22 22 22 23 22
23 23 21 18 18 17 15 15 15 14 14 13 12 13 15 15 14 13 13 13 12 12 13 13 13 14 13 14 15 16 17 18 19 19 20 21 22 23 24 24 25 25 25 24
22 22 21 20 20 19 17 16 15 14 14 15 14 14 15 16 15 15 15 15 15 15 15 15 15 15 16 16 17 18 19 20 21 21 22 23 24 25 25 26 26 27 26 26
24 22 20 20 19 18 18 18 17 17 17 16 16 16 18 18 18 17 17 17 17 17 17 17 17 17 17 18 18 19 20 21 22 23 24 25 25 26 27 27 28 28 28 28
23 22 21 20 20 20 19 18 19 19 17 17 18 19 19 19 20 20 20 19 19 19 19 20 20 20 20 20 21 22 22 23 24 25 26 26 27 27 28 28 29 29 29 29
23 22 21 20 21 21 20 20 19 19 19 19 20 20 20 20 20 21 21 22 22 22 22 23 23 23 23 23 23 24 24 25 25 26 27 28 28 28 29 29 30 30 31 31
23 21 21 20 20 20 21 20 20 20 20 20 21 21 20 21 22 23 23 23 24 24 24 25 26 26 26 26 27 27 28 28 28 28 29 28 29 29 30 31 31 32 32 33
22 21 20 20 20 20 21 19 19 19 20 19 20 20 21 22 24 24 24 24 25 26 27 27 27 28 29 30 30 31 31 31 31 31 31 31 31 31 32 33 34 34 34 34
22 21 21 20 20 20 22 19 19 19 20 19 20 21 21 22 24 25 26 27 27 28 29 29 30 30 31 32 33 33 34 34 34 34 34 34 35 35 35 35 35 36 36 36
22 22 21 20 20 21 21 20 20 20 20 20 21 21 22 22 23 24 25 27 28 29 30 30 31 32 33 34 34 34 35 35 36 36 36 37 37 37 37 37 37 38 38 39
23 22 21 21 21 22 21 21 21 22 22 21 21 22 22 23 23 24 25 27 27 28 28 30 32 32 33 32 32 34 35 35 35 36 37 38 38 39 38 39 39 40 40 41
23 22 22 22 23 23 23 23 23 23 23 23 23 23 23 24 24 25 26 28 28 29 30 30 31 32 32 33 33 33 35 35 35 36 37 38 38 39 39 40 41 43 44 44
20 20 21 22 23 23 23 23 24 24 24 24 24 25 25 25 25 25 25 26 27 28 28 29 30 31 32 33 34 35 34 35 37 38 38 38 39 39 41 42 43 44 45 46
20 21 22 22 22 22 23 23 24 24 24 25 25 25 25 26 26 27 27 27 28 28 29 30 31 32 33 34 35 35 35 36 36 37 37 38 39 40 42 43 44 45 47 48
Wind_Direction
293 292 297 296 306 310 315 323 326 324 327 327 329 329 331 335 340 340 338 324 292 236 214 206 209 209 207 207 207 205 202 203 203 204 208 208 208 214 221 223 222 231 314 353
279 280 285 292 302 310 315 320 320 320 324 328 328 329 332 338 345 347 347 342 306 227 204 199 198 201 202 204 205 201 202 199 198 200 202 204 208 210 211 207 191 184 212 354
266 265 275 283 296 309 316 317 316 316 322 326 331 335 338 343 348 351 354 358 355 220 191 183 185 186 187 186 191 193 196 194 195 198 201 206 205 204 202 197 188 188 220 323
256 263 268 276 286 303 310 316 317 318 324 327 331 335 334 342 349 353 2 7 12 72 178 184 182 177 176 179 183 187 190 192 195 200 204 204 204 205 205 204 204 212 242 290
252 258 264 269 278 293 302 310 315 318 321 328 329 334 331 338 344 355 5 14 28 65 158 182 184 181 182 186 189 192 194 196 201 205 208 206 209 210 212 213 220 229 248 271
248 254 259 264 272 287 298 304 313 321 325 326 320 327 328 329 338 344 356 9 21 51 148 167 178 185 191 195 199 199 201 205 209 209 209 211 214 215 220 224 232 241 252 267
248 253 256 260 271 284 294 306 318 323 322 315 313 318 316 319 326 332 332 344 352 11 187 192 190 195 200 203 204 205 208 210 210 210 213 217 221 221 225 234 243 250 256 265
241 248 254 256 266 277 286 293 294 297 303 308 310 310 306 306 311 313 315 312 307 278 243 220 207 207 210 214 215 217 218 216 216 217 219 223 224 225 232 241 250 256 261 266
236 241 250 253 262 271 279 281 280 287 298 308 305 303 300 295 297 301 299 296 286 267 251 239 227 222 223 224 225 224 224 223 223 222 224 228 230 234 240 248 254 259 262 266
235 242 250 255 262 269 273 275 277 279 285 295 301 303 292 290 292 293 292 289 287 275 259 250 243 239 237 232 231 229 229 230 231 231 232 235 238 242 247 252 257 260 262 267
238 246 255 262 263 266 267 269 270 270 273 282 289 287 279 281 285 285 284 279 280 277 268 259 255 251 247 242 238 237 236 236 238 237 238 242 246 250 253 257 260 263 266 269
240 247 254 264 267 261 262 263 268 271 274 276 276 279 274 274 276 278 279 275 273 273 271 267 262 259 255 251 247 244 244 244 244 244 245 249 253 256 259 261 263 266 269 272
241 249 256 264 268 262 260 258 260 263 264 269 273 275 274 271 270 272 275 274 272 273 273 270 268 264 259 255 251 248 247 248 248 248 250 254 257 260 263 264 266 269 271 273
245 251 253 253 257 260 258 255 257 260 262 266 267 263 268 268 266 266 268 269 272 273 273 273 274 270 264 261 258 255 253 252 253 254 255 258 260 262 265 266 268 271 273 274
247 251 253 254 257 254 254 255 256 258 258 261 262 263 263 262 260 260 263 267 271 272 271 271 274 272 268 264 262 259 258 259 259 259 260 261 263 265 266 268 270 272 273 275
245 250 253 253 253 252 253 253 255 260 262 262 261 261 260 261 258 257 259 263 266 269 270 271 273 275 271 269 268 265 262 262 262 263 264 264 266 268 269 269 271 272 274 276
244 250 252 251 253 253 256 255 257 260 261 262 261 260 262 261 258 257 258 259 262 266 267 267 271 272 271 271 272 271 269 267 264 264 265 267 268 270 271 272 272 273 275 278
242 246 250 249 252 253 254 255 256 258 260 262 262 261 261 259 258 258 257 257 258 261 262 262 265 268 268 268 270 271 271 269 268 268 267 268 270 271 273 274 275 276 277 279
238 246 247 248 253 255 257 256 256 257 259 260 261 262 262 260 260 260 259 259 257 256 260 261 262 263 264 265 267 269 269 268 269 269 269 270 271 272 273 275 275 277 278 280
237 242 249 251 250 250 256 254 253 256 259 260 262 263 263 263 262 262 260 260 259 257 258 259 261 261 262 262 264 266 267 268 269 269 269 270 271 272 274 275 276 277 279 280
239 242 246 248 248 248 251 252 253 255 258 260 263 265 266 266 266 265 262 261 260 257 257 258 259 260 261 261 263 265 266 265 267 269 270 271 272 273 275 276 278 279 280 281
237 241 243 244 246 249 250 251 253 256 259 263 264 265 267 269 267 266 265 264 262 260 258 259 261 262 262 261 262 265 267 266 267 268 269 271 272 273 274 276 278 279 280 281
234 236 239 241 245 250 253 254 257 260 262 265 268 269 270 270 269 268 266 265 265 265 264 263 262 264 265 263 265 266 267 268 267 267 269 271 273 273 275 277 278 279 281 282
236 238 241 244 248 253 256 258 260 262 265 268 270 271 272 272 272 271 269 266 265 265 266 267 266 265 265 266 269 269 269 269 270 271 271 273 275 276 278 280 280 281 282 284
242 244 247 249 253 256 259 261 263 265 267 269 271 272 272 273 272 271 269 267 266 267 268 269 270 269 269 270 270 271 272 272 273 274 275 277 278 279 280 282 283 283 284 285
249 251 252 254 256 258 261 264 266 267 268 270 271 270 271 275 275 273 271 270 270 271 271 271 271 272 273 272 274 275 277 277 277 278 278 279 281 282 283 283 284 284 285 287
Height
5888 5889 5889 5888 5887 5886 5885 5883 5882 5879 5876 5873 5870 5867 5863 5858 5854 5851 5847 5845 5843 5843 5842 5844 5846 5849 5852 5855 5859 5862 5865 5868 5871 5873 5875 5877 5878 5879 5880 5880 5880 5880 5880 5880
5886 5886 5886 5885 5885 5884 5882 5881 5880 5877 5874 5871 5868 5865 5862 5858 5854 5850 5848 5845 5843 5842 5843 5844 5845 5847 5850 5853 5857 5860 5863 5867 5870 5872 5874 5876 5877 5878 5879 5879 5879 5880 5880 5879
5883 5884 5883 5883 5882 5882 5880 5879 5877 5875 5872 5869 5867 5864 5861 5858 5854 5851 5848 5846 5844 5843 5843 5844 5845 5847 5850 5853 5856 5860 5863 5866 5869 5871 5873 5875 5876 5877 5878 5878 5879 5879 5879 5879
5879 5880 5880 5880 5880 5879 5879 5876 5874 5872 5870 5869 5867 5864 5861 5857 5854 5852 5849 5847 5845 5844 5845 5845 5847 5849 5851 5854 5857 5860 5863 5865 5868 5870 5872 5873 5875 5876 5877 5877 5878 5878 5878 5878
5876 5877 5877 5878 5877 5876 5875 5874 5872 5870 5868 5867 5865 5863 5862 5858 5855 5852 5850 5849 5847 5847 5847 5847 5849 5851 5853 5855 5857 5860 5863 5865 5867 5869 5871 5872 5873 5874 5875 5876 5876 5877 5877 5876
5873 5873 5874 5874 5874 5874 5873 5872 5870 5868 5867 5867 5864 5862 5861 5857 5855 5853 5851 5850 5849 5848 5848 5849 5850 5852 5853 5855 5858 5860 5862 5864 5866 5868 5869 5871 5872 5873 5874 5875 5875 5875 5875 5875
5869 5870 5870 5871 5871 5871 5870 5870 5870 5869 5868 5866 5862 5860 5859 5856 5855 5853 5852 5851 5850 5849 5849 5850 5851 5852 5854 5855 5857 5859 5861 5863 5864 5866 5868 5869 5870 5871 5872 5873 5873 5873 5873 5873
5867 5868 5868 5868 5868 5868 5867 5868 5868 5868 5866 5865 5861 5859 5858 5855 5854 5852 5852 5851 5851 5850 5850 5851 5851 5852 5854 5855 5857 5858 5860 5862 5863 5865 5866 5867 5868 5869 5870 5870 5871 5871 5871 5871
5863 5865 5864 5864 5864 5865 5864 5864 5864 5863 5862 5861 5860 5857 5855 5853 5852 5852 5851 5850 5850 5850 5850 5851 5851 5852 5853 5854 5855 5857 5859 5860 5861 5862 5864 5865 5866 5867 5868 5868 5869 5869 5869 5869
5859 5860 5860 5860 5860 5860 5860 5860 5859 5860 5859 5860 5859 5857 5855 5852 5851 5850 5850 5849 5849 5849 5849 5850 5850 5851 5852 5852 5854 5855 5857 5858 5858 5860 5861 5863 5864 5864 5865 5866 5866 5866 5866 5866
5854 5856 5856 5856 5856 5856 5856 5856 5855 5856 5855 5856 5856 5857 5851 5850 5848 5848 5848 5847 5847 5847 5848 5848 5848 5849 5850 5851 5852 5853 5854 5855 5857 5858 5859 5860 5861 5861 5862 5862 5862 5862 5862 5862
5849 5851 5852 5851 5850 5850 5850 5851 5851 5852 5851 5851 5851 5854 5848 5847 5846 5845 5845 5845 5845 5845 5845 5846 5846 5847 5847 5848 5849 5850 5851 5852 5854 5855 5856 5856 5857 5858 5858 5858 5858 5858 5858 5857
5844 5846 5847 5847 5847 5846 5845 5845 5846 5847 5847 5847 5848 5851 5844 5844 5843 5842 5842 5842 5842 5842 5842 5843 5843 5843 5844 5845 5846 5847 5848 5849 5850 5851 5852 5852 5853 5853 5853 5854 5854 5853 5853 5852
5838 5840 5842 5843 5841 5840 5840 5841 5841 5842 5843 5843 5844 5843 5841 5840 5839 5839 5839 5839 5839 5839 5839 5839 5840 5840 5840 5841 5842 5842 5843 5844 5845 5846 5846 5847 5848 5848 5848 5848 5848 5848 5847 5846
5832 5833 5834 5835 5835 5836 5836 5837 5837 5837 5838 5838 5839 5838 5837 5835 5835 5835 5835 5835 5835 5835 5836 5836 5836 5836 5836 5836 5837 5837 5838 5839 5840 5840 5841 5841 5842 5842 5842 5842 5842 5841 5840 5839
5825 5827 5828 5829 5829 5830 5831 5831 5832 5832 5832 5832 5833 5833 5831 5830 5831 5831 5831 5831 5831 5831 5831 5831 5832 5831 5831 5832 5832 5833 5833 5833 5834 5835 5835 5835 5836 5836 5835 5835 5835 5834 5833 5832
5818 5820 5822 5824 5824 5825 5826 5827 5826 5827 5827 5827 5827 5827 5825 5825 5825 5826 5826 5826 5826 5826 5827 5827 5827 5827 5827 5827 5827 5827 5828 5828 5828 5828 5829 5829 5829 5829 5828 5828 5828 5827 5826 5825
5812 5814 5815 5817 5819 5819 5822 5820 5820 5821 5821 5820 5820 5820 5820 5820 5820 5820 5820 5820 5820 5821 5821 5821 5821 5822 5822 5822 5822 5822 5822 5822 5822 5822 5821 5822 5821 5821 5821 5821 5820 5819 5818 5817
5806 5808 5809 5811 5812 5813 5814 5814 5814 5814 5814 5814 5814 5814 5814 5814 5814 5813 5814 5814 5814 5814 5815 5815 5815 5815 5815 5815 5816 5816 5815 5815 5815 5815 5814 5814 5814 5813 5813 5812 5811 5810 5809 5808
5799 5801 5804 5805 5806 5808 5808 5807 5807 5809 5808 5808 5807 5807 5807 5807 5807 5807 5807 5807 5807 5807 5808 5808 5808 5808 5808 5808 5809 5808 5808 5808 5807 5807 5806 5806 5805 5805 5804 5803 5802 5801 5800 5798
5793 5795 5796 5798 5799 5801 5800 5801 5802 5804 5803 5802 5801 5801 5801 5800 5801 5800 5800 5799 5799 5799 5799 5800 5800 5800 5800 5800 5800 5800 5799 5799 5799 5798 5798 5797 5796 5796 5795 5794 5792 5791 5789 5788
5786 5788 5790 5792 5793 5795 5793 5794 5796 5796 5795 5795 5795 5794 5794 5794 5793 5792 5792 5792 5791 5791 5791 5791 5791 5791 5791 5791 5791 5790 5790 5789 5789 5789 5788 5787 5786 5785 5784 5783 5782 5780 5779 5777
5779 5781 5783 5786 5787 5786 5786 5787 5788 5788 5788 5788 5788 5788 5787 5786 5786 5785 5785 5784 5784 5783 5783 5783 5783 5782 5782 5781 5781 5781 5780 5780 5779 5779 5778 5777 5776 5775 5773 5772 5770 5769 5767 5764
5772 5774 5776 5778 5778 5779 5779 5780 5781 5781 5781 5781 5781 5780 5780 5779 5779 5778 5777 5777 5776 5776 5775 5775 5774 5774 5773 5773 5772 5771 5770 5770 5769 5769 5768 5767 5766 5764 5762 5760 5759 5757 5754 5752
5766 5768 5769 5770 5772 5772 5773 5773 5774 5774 5774 5773 5773 5773 5772 5772 5771 5770 5769 5769 5768 5768 5767 5767 5766 5765 5765 5764 5763 5763 5761 5760 5759 5758 5757 5756 5754 5753 5750 5748 5746 5744 5741 5738
5760 5762 5763 5764 5765 5766 5766 5766 5766 5766 5766 5766 5766 5765 5765 5764 5763 5762 5761 5761 5760 5760 5759 5758 5757 5757 5756 5755 5754 5753 5752 5750 5749 5748 5746 5745 5743 5741 5739 5736 5733 5730 5728 5724